Location: Heisede
(52.2582°N, 9.8523°E)
Time: 17:03:57
(UTC+00:00)

Cosmos 2154 Rocket - Visible Passes

Search period start: 11 April 2026 00:00
Search period end: 21 April 2026 00:00
Orbit: 967 x 995 km, 82.9° (Epoch: 11 April)

Date Brightness Start Highest point End Pass type
(mag) Time Alt. Az. Time Alt. Az. Time Alt. Az.
11 Apr 5.5 20:14:44 10° SW 20:20:35 38° WNW 20:26:30 10° N visible
12 Apr 7.2 03:35:07 10° NNE 03:37:54 13° NE 03:40:40 10° ENE visible
12 Apr 4.0 18:55:26 10° S 19:01:43 78° E 19:08:06 10° NNE visible
12 Apr 6.3 20:42:55 10° WSW 20:47:59 25° WNW 20:53:05 10° N visible
13 Apr 4.5 19:22:26 10° SSW 19:28:42 66° WNW 19:35:04 10° N visible
13 Apr 6.8 21:11:53 10° W 21:15:35 16° NW 21:19:19 10° NNW visible
14 Apr 5.5 19:49:57 10° SW 19:55:52 41° WNW 20:01:52 10° N visible
15 Apr 7.3 03:10:41 10° NNE 03:13:08 12° NE 03:15:34 10° ENE visible
15 Apr 6.3 20:18:04 10° WSW 20:23:15 26° WNW 20:28:29 10° N visible
16 Apr 7.0 03:36:26 10° NNE 03:40:51 19° ENE 03:45:15 10° E visible
16 Apr 4.5 18:57:43 10° SSW 19:04:02 70° WNW 19:10:25 10° N visible
16 Apr 6.9 20:46:55 10° W 20:50:50 17° NW 20:54:47 10° NNW visible
17 Apr 5.4 19:25:12 10° SW 19:31:11 43° WNW 19:37:14 10° N visible
17 Apr 7.3 21:17:33 10° NW 21:18:38 10° NW 21:19:44 10° NW visible
18 Apr 7.5 02:46:19 10° NNE 02:48:22 11° NE 02:50:23 10° ENE visible
18 Apr 6.3 19:53:13 10° WSW 19:58:32 27° WNW 20:03:52 10° N visible
19 Apr 7.1 03:11:52 10° NNE 03:16:07 18° NE 03:20:20 10° E visible
19 Apr 6.9 20:21:58 10° W 20:26:05 18° NW 20:30:14 10° NNW visible
20 Apr 5.4 19:00:26 10° SW 19:06:29 46° WNW 19:12:36 10° N visible
20 Apr 7.4 20:52:08 10° WNW 20:53:52 11° NW 20:55:35 10° NNW visible
